This is the latest recevied weather packets stored in our database for station/object WD0REW. If no packets are shown the sender has not sent any weather packets the latest 10 day(s).
| Time | Temp. | Humidity | Pressure | Rain* | Wind** | Luminosity | Snow |
|---|---|---|---|---|---|---|---|
| 1777924257 | 27.22° C | 45% | 1007.4 hPa | 0 mm | - | 654 W/m² | - |
| 1777923954 | 27.78° C | 41% | 1007.6 hPa | 0 mm | - | 664 W/m² | - |
| 1777923650 | 27.22° C | 40% | 1007.5 hPa | 0 mm | - | 677 W/m² | - |
| 1777923346 | 27.22° C | 41% | 1007.5 hPa | 0 mm | - | 686 W/m² | - |
| 1777923045 | 26.67° C | 42% | 1007.6 hPa | 0 mm | - | 698 W/m² | - |
| 1777922743 | 27.22° C | 40% | 1007.7 hPa | 0 mm | - | 706 W/m² | - |
| 1777922441 | 27.22° C | 41% | 1007.6 hPa | 0 mm | - | 716 W/m² | - |
| 1777922138 | 27.22° C | 41% | 1007.8 hPa | 0 mm | - | 725 W/m² | - |
| 1777921834 | 27.22° C | 41% | 1007.7 hPa | 0 mm | - | 732 W/m² | - |
| 1777921531 | 27.22° C | 45% | 1007.7 hPa | 0 mm | - | 744 W/m² | - |
| 1777921227 | 27.22° C | 41% | 1007.6 hPa | 0 mm | - | 755 W/m² | - |
| 1777920924 | 27.22° C | 41% | 1007.7 hPa | 0 mm | - | 761 W/m² | - |
| 1777920620 | 26.67° C | 43% | 1007.6 hPa | 0 mm | - | 772 W/m² | - |
| 1777920316 | 26.67° C | 40% | 1007.7 hPa | 0 mm | - | 779 W/m² | - |
| 1777920012 | 27.22° C | 40% | 1007.8 hPa | 0 mm | - | 782 W/m² | - |
| 1777919709 | 26.67° C | 42% | 1007.8 hPa | 0 mm | - | 782 W/m² | - |
| 1777919407 | 27.22° C | 40% | 1007.7 hPa | 0 mm | - | 788 W/m² | - |
| 1777919103 | 26.67° C | 45% | 1007.8 hPa | 0 mm | - | 788 W/m² | - |
| 1777918801 | 26.67° C | 41% | 1007.6 hPa | 0 mm | - | 788 W/m² | - |
| 1777918498 | 26.67° C | 42% | 1007.4 hPa | 0 mm | - | 794 W/m² | - |
| 1777918196 | 26.11° C | 43% | 1007.7 hPa | 0 mm | - | 798 W/m² | - |
| 1777917895 | 26.67° C | 42% | 1007.6 hPa | 0 mm | - | 803 W/m² | - |
| 1777917593 | 26.67° C | 43% | 1007.6 hPa | 0 mm | - | 802 W/m² | - |
| 1777917290 | 26.67° C | 45% | 1007.8 hPa | 0 mm | - | 803 W/m² | - |
| 1777916987 | 26.11° C | 44% | 1007.7 hPa | 0 mm | - | 802 W/m² | - |
* Rain latest hour (hover to see other rain measurements)
** Current wind speed in m/s (hover to see current wind gust speed)